Retour au catalogue

STARLINK-35438

ActifCommunicationsVLEO
NORAD 66347·PAYLOAD·🇺🇸 United States

Lancé Nov 6, 2025 depuis Cape Canaveral Space Force Station

Loading…

Prochains Passages (prochaines 24 heures)

TLE

FraisSource: CelesTrak SupGP

Époque: Sep 14, 2026, 15:47 UTC

1 66347C 25253AE  26257.65812500 -.00016174  00000+0 -58590-3 0  2579
2 66347  43.0026 225.0042 0001329 264.8716 260.7063 15.27581822    13

Suivez STARLINK-35438 en temps réel avec AllMySat

Download on the App Store